User: anonymous   Login
Location: Evergreen Manor
(41.4083°N, 81.4939°W)
Time: 08:27:42
(UTC+00:00)
Language:

SL-16 R/B - Orbit

View from above orbital plane
View from above orbital plane
View from above satellite
View from above satellite

Ground track
Ground track

The orbit data is extracted from the following two-line orbital elements,

1 28353U 04021B   20049.81312548 -.00000320 +00000-0 -14268-3 0  9996
2 28353 070.9993 190.2463 0004777 186.0227 174.0839 14.14225920810221
Epoch (UTC): 18 February 2020 19:30:54
Eccentricity: 0.0004777
inclination: 70.9993°
perigee height: 841 km
apogee height: 848 km
right ascension of ascending node: 190.2463°
argument of perigee: 186.0227°
revolutions per day: 14.14225920
mean anomaly at epoch: 174.0839°
orbit number at epoch: 81022

The dashed part of the orbit path shows where the satellite is in the earth's shadow,  

DLR